TIROS 2 DEB *, 5922

Orbit data source: Space-Track

TIROS 2 DEB *, 5922 is space debris in LEO originally from a launch on Wed, 23 Nov 1960 UTC launched from the Air Force Eastern Test Range (AFETR). Debris objects in space refer to the collection of defunct objects orbiting the Earth. Examples of debris include non-operational satellites, rocket bodies, and fragments generated from explosions, collisions, or faulty payload assembly.

Loading next visibility...
Identifier
5922, 1960-016E
Orbit
LEO
Country
Flag of USUS
Related business
Manufacturer
Unknown
Mission
Spacecraft
Bus & Motor
Unknown
Mass
Unknown
Launch date (UTC)
1960-11-23 (65 years ago)
Launch vehicle
Unknown
Launch site
Air Force Eastern Test Range (AFETR)
Object type
Payload
Rocket body
Debris
Shape & HBR
Unknown shape, 0.1 m
Radar Cross Section
Small (<0.1 m²)

Expand to show TLE details & history
Last TLE update: 2 days ago

TLE from 2 days ago
0 TIROS 2 DEB *
1 05922U 60016E   25351.87676605 -.00000061  00000-0  77873-4 0  9996
2 05922  47.0289 173.6053 0040454   3.1483 132.5973 13.70043060726583
Epoch: 2025-12-17T21:02Z
TLE epoch observation values (Epoch: 2025-12-17T21:02:32.586Z)
Latitude
30.59697°
Longitude
-82.00189°
Altitude
1,020.845 km
Speed
7.335 km/s
True Right ascension
21h 21m 29s
True Declination
30° 27' 07"
Sunlit
Object was in daylight at epoch
Visualization orbit readout
Latitude
Unknown
Longitude
Unknown
Altitude
Unknown
Speed
Unknown
Apparent Right ascension
Unknown
Apparent Declination
Unknown
Sunlit
N/A
Visualization observer readout
Local Sidereal Time
08:24:03
Azimuth
Unknown
Elevation
Unknown
Doppler factor
Unknown
Orbital elements
Apogee altitude
1,030.447 km
Perigee altitude
970.747 km
Semi-major axis
7,378.734 km
Eccentricity
0.00405
Inclination
47.0289°
RAAN
173.6053°
Arg. of periapsis
3.1483°
True anomaly
132.93738°
Mean anomaly
132.5973°
Eccentric anomaly
132.76746°
Mean motion
3.42429 °/min
Orbital period
105.13 mins
BSTAR
0.000077873
Loading maneuver chart data...
Computing Atmospheric mass density...
Loading historical data...
Loading historical data...
Loading historical data...
Loading historical data...
Loading historical data...
Loading historical data...
Loading historical data...
Other satellites on launch #16 in the year 1960 (1960-11-23 UTC)

Documentation

Showing up to 5 results
|